[[{"header":{"parameterUnit":"m.s-1","parameterCategory":1,"la1":30.2991,"la2":30.254,"lo1":-89.0895,"lo2":-89.0444,"dy":0.0017,"dx":0.0017,"nx":28,"ny":28,"refTime":"2025-06-21T03:00:00:Z","depth":0,"parameterNumber":2,"parameterNumberName":"U-component_of_WINDS"},"data":[0,0,0,0,0,0,0,0,0,0,0,0,0,0,0,0,0,0,0,0,0,0,0,0,0,0,0,0,0,0,0,0,0,0,0,0,0,0,0,0,0,0,0,0,0,0,0,0,0,0,0,0,0,0,0,0,0,0,-2.5049,-2.5048,0,-2.495,-2.4949,-2.4948,-2.4846,-2.4844,-2.4843,-2.4842,-2.4742,-2.4741,-2.4739,0,0,0,0,0,0,0,0,0,0,0,0,0,-2.5152,-2.515,-2.5049,-2.5048,-2.5046,-2.495,-2.4949,-2.4947,-2.4846,-2.4844,-2.4843,-2.4841,-2.4743,-2.4741,-2.4739,0,0,0,0,0,0,0,0,0,0,0,0,0,-2.5085,-2.515,-2.5049,-2.4984,-2.4977,-2.495,-2.4949,-2.4947,-2.4846,-2.4844,-2.4842,-2.484,-2.4743,-2.4741,-2.4739,-2.4769,0,0,-2.4733,-2.4732,0,0,0,0,0,0,0,0,-2.5089,-2.5082,-2.4995,-2.4989,-2.4981,-2.4908,-2.4948,-2.4887,-2.4847,-2.4896,-2.4842,-2.4839,-2.4799,-2.4792,-2.4778,-2.4764,-2.476,-2.4733,-2.4732,-2.4731,-2.473,0,0,0,0,0,0,0,-2.5094,-2.5085,-2.501,-2.4994,-2.4985,-2.4961,-2.4949,-2.4936,-2.4861,-2.4892,-2.4884,-2.4874,-2.4795,-2.4781,-2.4775,-2.4758,-2.4733,-2.4731,-2.473,-2.4729,-2.4763,-2.4765,0,0,0,0,0,0,-2.5108,-2.509,-2.5013,-2.5007,-2.5031,-2.496,-2.4947,-2.4934,-2.4861,-2.4847,-2.4876,-2.4869,-2.4785,-2.4778,-2.4772,-2.48,-2.4731,-2.4729,-2.4728,-2.4761,-2.4764,-2.4766,0,0,0,0,0,0,-2.5111,-2.5102,-2.5017,-2.5046,-2.5033,-2.4961,-2.4946,-2.4933,-2.4918,-2.4848,-2.4835,-2.4875,-2.4783,-2.4774,-2.477,-2.4796,-2.4728,-2.4726,-2.4759,-2.4762,-2.4765,-2.486,0,0,0,0,0,0,-2.5114,-2.5104,-2.5114,-2.5047,-2.5032,-2.5017,-2.4948,-2.4932,-2.4915,-2.4906,-2.4844,-2.4832,-2.4781,-2.4774,-2.4768,-2.4792,-2.4725,-2.4756,-2.476,-2.4764,-2.4854,-2.4866,-2.4876,0,0,0,0,0,-2.5118,-2.5145,-2.5115,-2.5106,-2.5043,-2.5018,-2.501,-2.495,-2.4917,-2.4927,-2.4882,-2.4834,-2.4794,-2.4774,-2.4767,-2.479,-2.4754,-2.4759,-2.4763,-2.4849,-2.4863,-2.4876,0,0,0,0,0,0,-2.5217,-2.5135,-2.5101,-2.5107,-2.507,-2.5001,-2.5011,-2.4968,-2.494,-2.4933,-2.4861,-2.4848,-2.4852,-2.4821,-2.48,-2.4815,-2.4767,-2.4771,-2.4835,-2.4848,-2.4859,-2.4865,-2.4723,0,0,0,0,0,-2.524,-2.5226,-2.5155,-2.5167,-2.515,-2.5085,-2.5072,-2.5029,-2.4988,-2.4973,-2.4927,-2.4891,-2.487,-2.4857,-2.4834,-2.485,-2.4835,-2.4863,-2.4874,-2.4883,-2.4886,-2.4892,-2.4903,-2.4782,-2.4781,-2.4781,0,0,-2.5286,-2.5239,-2.5235,-2.5186,-2.5152,-2.514,-2.5072,-2.5062,-2.5052,-2.4971,-2.4963,-2.493,-2.4884,-2.4889,-2.489,-2.4864,-2.4917,-2.4889,-2.4897,-2.4895,-2.4898,-2.4909,-2.492,-2.4785,-2.4784,-2.4784,0,0,-2.5363,-2.5327,-2.5332,-2.5301,-2.5251,-2.5207,-2.5209,-2.5146,-2.512,-2.5112,-2.5051,-2.5039,-2.5005,-2.4974,-2.4954,-2.5022,-2.4976,-2.5016,-2.5073,-2.5079,-2.5089,-2.5097,-2.512,-2.5129,-2.502,-2.5021,-2.5021,0,-2.5427,-2.5405,-2.5341,-2.5334,-2.5315,-2.5241,-2.5246,-2.5219,-2.5165,-2.5153,-2.5125,-2.508,-2.5044,-2.5041,-2.5058,-2.5045,-2.5044,-2.5022,-2.5092,-2.51,-2.5107,-2.5128,-2.5137,-2.5026,-2.5025,-2.5025,-2.5024,0,-2.5485,-2.5471,-2.5482,-2.5431,-2.5412,-2.5412,-2.5349,-2.5338,-2.5298,-2.5257,-2.525,-2.5204,-2.517,-2.5167,-2.5128,-2.5159,-2.5144,-2.5106,-2.5056,-2.5124,-2.5143,-2.5151,-2.5033,-2.5031,-2.503,-2.5029,0,0,-2.5621,-2.5535,-2.5539,-2.5515,-2.5455,-2.5444,-2.5441,-2.5407,-2.5399,-2.5365,-2.536,-2.5333,-2.5297,-2.5275,-2.5232,-2.5237,-2.5292,-2.5197,-2.5195,-2.5216,-2.5323,-2.5352,-2.5362,-2.5263,-2.5264,-2.5265,-2.5327,0,-2.5687,-2.5675,-2.5618,-2.5623,-2.5609,-2.554,-2.5537,-2.55,-2.5463,-2.5446,-2.5405,-2.5386,-2.534,-2.5326,-2.5329,-2.5285,-2.5313,-2.528,-2.5257,-2.5257,-2.5269,-2.5372,-2.5402,-2.5462,-2.5334,-2.5335,-2.5336,0,-2.5762,-2.5731,-2.5735,-2.5675,-2.5667,-2.5666,-2.563,-2.5615,-2.5573,-2.5545,-2.5521,-2.5473,-2.5466,-2.5421,-2.541,-2.5389,-2.5377,-2.5354,-2.5355,-2.5349,-2.5299,-2.5368,-2.548,-2.5489,-2.5347,-2.5346,-2.5345,0,-2.5859,-2.5819,-2.5816,-2.5797,-2.5728,-2.5728,-2.57,-2.5655,-2.5639,-2.5609,-2.5597,-2.5567,-2.5551,-2.5529,-2.5474,-2.5446,-2.547,-2.542,-2.5446,-2.5448,-2.5453,-2.5453,-2.5563,-2.5448,-2.5448,-2.5447,-2.5447,0,-2.5938,-2.5942,-2.5858,-2.5856,-2.586,-2.5795,-2.58,-2.5765,-2.5726,-2.5717,-2.5656,-2.5648,-2.5576,-2.5561,-2.5518,-2.5516,-2.5509,-2.5487,-2.5475,-2.5491,-2.5494,-2.5481,-2.5475,-2.545,-2.5449,-2.5449,-2.5448,0,-2.6046,-2.599,-2.5981,-2.5917,-2.5901,-2.5906,-2.585,-2.5846,-2.5805,-2.5794,-2.5788,-2.5724,-2.5702,-2.5646,-2.561,-2.5581,-2.559,-2.557,-2.5604,-2.5597,-2.5626,-2.5623,-2.573,-2.5741,-2.5621,-2.5622,-2.5623,0,-2.6099,-2.6101,-2.6036,-2.6025,-2.5998,-2.5981,-2.5964,-2.5901,-2.5886,-2.5838,-2.584,-2.5813,-2.5788,-2.5758,-2.5709,-2.5681,-2.5658,-2.5698,-2.5654,-2.567,-2.5657,-2.5657,-2.5657,-2.5707,-2.5709,-2.571,-2.5711,0,-2.6199,-2.6172,-2.6148,-2.6116,-2.6097,-2.6069,-2.6037,-2.6032,-2.5961,-2.5947,-2.5924,-2.5905,-2.5868,-2.5843,-2.5808,-2.5779,-2.5734,-2.5726,-2.573,-2.5746,-2.5765,-2.5754,-2.5629,-2.5723,-2.5722,-2.5721,-2.572,-2.572,-2.6281,-2.6279,-2.6233,-2.6209,-2.6179,-2.6151,-2.6143,-2.6101,-2.6081,-2.6045,-2.601,-2.5991,-2.5948,-2.5896,-2.5871,-2.5855,-2.5832,-2.5838,-2.584,-2.5842,-2.5849,-2.5769,-2.5849,-2.5849,-2.5848,-2.5848,-2.5848,0,-2.6377,-2.6344,-2.6323,-2.628,-2.6262,-2.622,-2.6183,-2.6171,-2.6154,-2.6119,-2.6096,-2.6069,-2.6045,-2.5994,-2.5965,-2.5962,-2.5941,-2.5957,-2.5955,-2.5949,-2.5872,-2.5871,-2.5975,-2.5974,-2.5974,-2.5974,-2.5974,-2.5974,-2.6424,-2.6418,-2.6386,-2.6365,-2.6331,-2.6311,-2.6294,-2.6268,-2.6239,-2.6212,-2.6191,-2.6158,-2.6116,-2.6083,-2.6059,-2.6045,-2.6036,-2.6059,-2.6038,-2.5967,-2.5955,-2.5943,-2.5941,-2.6058,-2.6058,-2.6116,-2.6116,-2.6117]},{"header":{"parameterUnit":"m.s-1","parameterCategory":1,"la1":30.2991,"la2":30.254,"lo1":-89.0895,"lo2":-89.0444,"dy":0.0017,"dx":0.0017,"nx":28,"ny":28,"refTime":"2025-06-21T03:00:00:Z","depth":0,"parameterNumber":3,"parameterNumberName":"V-component_of_WINDS"},"data":[0,0,0,0,0,0,0,0,0,0,0,0,0,0,0,0,0,0,0,0,0,0,0,0,0,0,0,0,0,0,0,0,0,0,0,0,0,0,0,0,0,0,0,0,0,0,0,0,0,0,0,0,0,0,0,0,0,0,3.3153,3.3152,0,3.3138,3.3138,3.3138,3.3147,3.3147,3.3148,3.3148,3.3128,3.3127,3.3126,0,0,0,0,0,0,0,0,0,0,0,0,0,3.3183,3.3182,3.3153,3.3152,3.3152,3.3138,3.3138,3.3138,3.3147,3.3147,3.3148,3.3148,3.3128,3.3127,3.3126,0,0,0,0,0,0,0,0,0,0,0,0,0,3.3169,3.3182,3.3153,3.3155,3.3155,3.3138,3.3138,3.3138,3.3146,3.3147,3.3148,3.3148,3.3129,3.3127,3.3126,3.3104,0,0,3.3122,3.3121,0,0,0,0,0,0,0,0,3.317,3.3168,3.3155,3.3155,3.3155,3.3145,3.3142,3.3126,3.3146,3.315,3.3148,3.3149,3.3133,3.3131,3.3127,3.3104,3.3103,3.3122,3.3121,3.312,3.312,0,0,0,0,0,0,0,3.3171,3.3169,3.3147,3.3155,3.3155,3.3155,3.3154,3.3139,3.3137,3.3149,3.315,3.3148,3.3133,3.3128,3.3126,3.3102,3.3122,3.312,3.3119,3.3119,3.3061,3.306,0,0,0,0,0,0,3.3172,3.3169,3.3147,3.3146,3.3164,3.3154,3.3153,3.3147,3.3138,3.3137,3.3148,3.3149,3.313,3.3128,3.3126,3.31,3.312,3.3119,3.3118,3.3061,3.3061,3.306,0,0,0,0,0,0,3.3173,3.317,3.3148,3.3158,3.3155,3.3153,3.3147,3.3147,3.3142,3.3137,3.3136,3.3144,3.3131,3.3128,3.311,3.3099,3.3118,3.3117,3.3062,3.3061,3.306,3.3048,0,0,0,0,0,0,3.3174,3.317,3.3163,3.3158,3.3155,3.3134,3.3146,3.3146,3.314,3.3142,3.3133,3.3132,3.3131,3.3112,3.3109,3.3098,3.3116,3.3063,3.3062,3.3061,3.3049,3.3047,3.3044,0,0,0,0,0,3.3175,3.3159,3.3163,3.316,3.3146,3.3133,3.3131,3.3132,3.314,3.3132,3.3128,3.3132,3.3101,3.311,3.3106,3.3095,3.3064,3.3062,3.3061,3.305,3.3047,3.3044,0,0,0,0,0,0,3.3161,3.3158,3.3162,3.3145,3.3139,3.3135,3.3124,3.3129,3.3119,3.3121,3.3121,3.3119,3.31,3.3096,3.3106,3.3074,3.3084,3.3081,3.3077,3.3074,3.3072,3.3072,3.3115,0,0,0,0,0,3.3156,3.3148,3.3145,3.313,3.3127,3.3126,3.3121,3.3122,3.3116,3.3113,3.3108,3.31,3.3089,3.3081,3.3071,3.3049,3.3047,3.3039,3.3037,3.3035,3.3032,3.302,3.3017,3.3055,3.3055,3.3055,0,0,3.3146,3.3143,3.3137,3.3127,3.3123,3.3112,3.3124,3.3112,3.3104,3.311,3.3094,3.3091,3.3082,3.3062,3.3053,3.3058,3.3022,3.3033,3.3031,3.303,3.3018,3.3015,3.3012,3.3054,3.3054,3.3054,0,0,3.3121,3.3119,3.3106,3.3102,3.3096,3.3096,3.3093,3.3088,3.3086,3.3071,3.3075,3.3065,3.3045,3.3039,3.3033,3.3008,3.301,3.3004,3.299,3.2979,3.2976,3.2973,3.2963,3.296,3.3002,3.3002,3.3002,0,3.3108,3.3094,3.3098,3.3086,3.3081,3.3089,3.3075,3.3071,3.3061,3.3057,3.3063,3.3039,3.3034,3.3013,3.3007,3.3002,3.2998,3.3004,3.2976,3.2974,3.2971,3.2962,3.2958,3.3001,3.3001,3.3001,3.3001,0,3.3077,3.3068,3.3058,3.305,3.3044,3.3032,3.3033,3.3026,3.3029,3.3027,3.3011,3.3005,3.2993,3.2989,3.299,3.2968,3.2971,3.2977,3.2986,3.2967,3.2958,3.2954,3.3,3.3,3.3,3.3001,0,0,3.3042,3.3039,3.3035,3.3032,3.3027,3.3018,3.3006,3.2997,3.299,3.2984,3.2972,3.2957,3.2962,3.2956,3.2957,3.2947,3.2926,3.2954,3.2953,3.2948,3.29,3.2895,3.2891,3.2929,3.2928,3.2928,3.2901,0,3.3016,3.2996,3.3,3.2979,3.297,3.2978,3.2967,3.2962,3.2961,3.2952,3.295,3.2939,3.2947,3.2943,3.2934,3.2931,3.2916,3.2933,3.2916,3.2916,3.2917,3.2887,3.2881,3.2856,3.2897,3.2897,3.2896,0,3.2983,3.2977,3.2957,3.2954,3.295,3.294,3.2932,3.2924,3.2918,3.2918,3.2912,3.2915,3.2901,3.2913,3.2893,3.2904,3.2898,3.2895,3.2894,3.2891,3.2904,3.2882,3.2848,3.2844,3.2891,3.2892,3.2892,0,3.2958,3.2945,3.2931,3.2928,3.2925,3.2918,3.2916,3.2911,3.2905,3.2898,3.2894,3.2885,3.2879,3.2871,3.2871,3.2879,3.2851,3.2862,3.2849,3.2849,3.2841,3.2841,3.2804,3.2839,3.2839,3.2839,3.2839,0,3.2928,3.2915,3.292,3.2911,3.2896,3.2901,3.2886,3.2884,3.288,3.287,3.2876,3.2867,3.2868,3.2858,3.2858,3.2841,3.2839,3.2837,3.2837,3.2836,3.2836,3.283,3.2832,3.2838,3.2838,3.2839,3.2839,0,3.2897,3.29,3.2885,3.2884,3.2883,3.2872,3.2871,3.2862,3.2862,3.285,3.2847,3.2846,3.2835,3.2835,3.2821,3.2821,3.2801,3.2803,3.2803,3.2803,3.2789,3.279,3.2746,3.2741,3.278,3.278,3.278,0,3.2877,3.2867,3.2866,3.286,3.2858,3.285,3.2844,3.2849,3.2843,3.2836,3.2828,3.2818,3.2809,3.2791,3.2788,3.2778,3.2779,3.2765,3.2777,3.2776,3.2777,3.2777,3.2776,3.2761,3.2761,3.2761,3.276,0,3.2841,3.2843,3.2836,3.283,3.2824,3.2819,3.2814,3.2809,3.2813,3.2806,3.2795,3.2789,3.2777,3.2766,3.2756,3.2752,3.2756,3.2757,3.2753,3.2751,3.2751,3.275,3.2795,3.2757,3.2757,3.2758,3.2758,3.2758,3.2814,3.2806,3.2804,3.2796,3.2793,3.2789,3.2781,3.2781,3.2773,3.2764,3.2767,3.2754,3.2749,3.2737,3.2733,3.2722,3.2727,3.2722,3.272,3.2718,3.2716,3.2754,3.2721,3.2721,3.2721,3.2721,3.2721,0,3.2777,3.2777,3.277,3.2764,3.2758,3.2765,3.276,3.2754,3.2744,3.274,3.2732,3.272,3.271,3.2707,3.2697,3.2689,3.2691,3.2686,3.2686,3.2685,3.2713,3.2717,3.2685,3.2685,3.2685,3.2685,3.2685,3.2685,3.2758,3.2744,3.2746,3.2731,3.273,3.272,3.2717,3.2712,3.2709,3.2696,3.2688,3.2688,3.2684,3.2674,3.2664,3.2664,3.2659,3.2654,3.2654,3.268,3.2683,3.2686,3.269,3.2653,3.2653,3.2626,3.2626,3.2626]}]]